IRA515 OISS-OIMM

Flight info

Callsign IRA515
Flight time 1h 21m
Altitude 35000
Route KINOT G663 RAMIL
Aircraft B38M/M-SDE1FGHILORVWXY/HB1

Departure

Time 2026-05-08 21:08
Airport Shiraz Shahid Dastghaib International Airport (OISS)

Arrival

Time 2026-05-08 22:29
Airport Mashhad International Airport (OIMM)
Time Latitude Longitude Altitude Speed Heading
2026-05-08 20:42 29.54273 52.59652 4928 ft 0 kts 26°
2026-05-08 20:58 29.54251 52.59640 4928 ft 4 kts 30°
2026-05-08 20:58 29.54229 52.59623 4927 ft 4 kts 37°
2026-05-08 20:58 29.54207 52.59605 4929 ft 4 kts 24°
2026-05-08 20:59 29.54198 52.59599 4928 ft 2 kts 295°
2026-05-08 20:59 29.54196 52.59605 4928 ft 0 kts 293°
2026-05-08 21:01 29.54197 52.59601 4932 ft 1 kts 293°
2026-05-08 21:01 29.54201 52.59590 4929 ft 2 kts 293°
2026-05-08 21:02 29.54208 52.59573 4928 ft 3 kts 293°
2026-05-08 21:02 29.54218 52.59548 4929 ft 4 kts 293°
2026-05-08 21:02 29.54230 52.59515 4929 ft 5 kts 292°
2026-05-08 21:02 29.54241 52.59477 4931 ft 5 kts 277°
2026-05-08 21:03 29.54210 52.59433 4927 ft 11 kts 198°
2026-05-08 21:03 29.54144 52.59480 4926 ft 14 kts 104°
2026-05-08 21:03 29.54106 52.59611 4927 ft 21 kts 114°
2026-05-08 21:03 29.54033 52.59788 4928 ft 28 kts 115°
2026-05-08 21:04 29.53943 52.60012 4929 ft 34 kts 115°
2026-05-08 21:04 29.53834 52.60280 4928 ft 40 kts 115°
2026-05-08 21:04 29.53711 52.60587 4927 ft 45 kts 115°
2026-05-08 21:04 29.53576 52.60922 4928 ft 47 kts 115°
2026-05-08 21:05 29.53450 52.61178 4927 ft 24 kts 157°
2026-05-08 21:05 29.53300 52.61120 4920 ft 25 kts 206°
2026-05-08 21:05 29.53150 52.61036 4924 ft 22 kts 206°
2026-05-08 21:05 29.53079 52.60993 4927 ft 7 kts 207°
2026-05-08 21:06 29.53023 52.60960 4930 ft 11 kts 207°
2026-05-08 21:06 29.52938 52.60904 4923 ft 15 kts 225°
2026-05-08 21:06 29.52936 52.60821 4925 ft 10 kts 297°
2026-05-08 21:06 29.52988 52.60704 4925 ft 32 kts 297°
2026-05-08 21:07 29.53172 52.60256 4918 ft 92 kts 294°
2026-05-08 21:07 29.53519 52.59373 4921 ft 150 kts 294°
2026-05-08 21:07 29.54011 52.58112 5070 ft 187 kts 293°
2026-05-08 21:07 29.54535 52.56643 5461 ft 216 kts 291°
2026-05-08 21:08 29.55137 52.55019 6085 ft 220 kts 294°
2026-05-08 21:08 29.55617 52.53278 6452 ft 239 kts 277°
2026-05-08 21:08 29.55938 52.51320 6749 ft 261 kts 294°
2026-05-08 21:08 29.57097 52.49730 7205 ft 270 kts 327°
2026-05-08 21:09 29.58924 52.49114 7677 ft 283 kts
2026-05-08 21:09 29.60833 52.49748 8212 ft 295 kts 32°
2026-05-08 21:09 29.62205 52.51486 8887 ft 299 kts 64°
2026-05-08 21:09 29.62638 52.53823 9415 ft 304 kts 95°
2026-05-08 21:10 29.62017 52.56124 9797 ft 305 kts 126°
2026-05-08 21:10 29.60462 52.57712 10440 ft 300 kts 158°
2026-05-08 21:10 29.58466 52.58225 11104 ft 295 kts 179°
2026-05-08 21:10 29.56427 52.58679 11682 ft 309 kts 158°
2026-05-08 21:11 29.54707 52.60262 11985 ft 333 kts 127°
2026-05-08 21:11 29.53820 52.62790 12229 ft 357 kts 98°
2026-05-08 21:11 29.54056 52.65646 12428 ft 377 kts 71°
2026-05-08 21:11 29.55477 52.68269 12692 ft 392 kts 44°
2026-05-08 21:12 29.57758 52.69938 13043 ft 401 kts 19°
2026-05-08 21:12 29.60489 52.70530 13604 ft 401 kts
2026-05-08 21:12 29.63299 52.70635 14101 ft 408 kts
2026-05-08 21:12 29.66134 52.71044 14606 ft 413 kts
2026-05-08 21:13 29.68972 52.71846 15129 ft 418 kts 20°
2026-05-08 21:13 29.71612 52.73195 15679 ft 423 kts 25°
2026-05-08 21:13 29.74248 52.74743 16159 ft 428 kts 27°
2026-05-08 21:13 29.76849 52.76390 16694 ft 431 kts 29°
2026-05-08 21:14 29.79481 52.78121 17033 ft 438 kts 30°
2026-05-08 21:14 29.82118 52.79897 17505 ft 442 kts 30°
2026-05-08 21:14 29.84811 52.81730 17988 ft 446 kts 30°
2026-05-08 21:14 29.87449 52.83534 18470 ft 449 kts 30°
2026-05-08 21:15 29.90147 52.85384 18872 ft 453 kts 30°
2026-05-08 21:15 29.92861 52.87246 19286 ft 456 kts 30°
2026-05-08 21:15 29.95596 52.89124 19702 ft 459 kts 30°
2026-05-08 21:15 29.98334 52.91005 20098 ft 462 kts 30°
2026-05-08 21:16 30.01107 52.92912 20512 ft 466 kts 30°
2026-05-08 21:16 30.03896 52.94830 20925 ft 468 kts 30°
2026-05-08 21:16 30.06707 52.96766 21337 ft 472 kts 30°
2026-05-08 21:16 30.09529 52.98710 21796 ft 472 kts 30°
2026-05-08 21:17 30.12358 53.00660 22133 ft 477 kts 31°
2026-05-08 21:17 30.15219 53.02635 22444 ft 481 kts 30°
2026-05-08 21:17 30.18102 53.04625 22814 ft 484 kts 30°
2026-05-08 21:17 30.20993 53.06622 23173 ft 488 kts 30°
2026-05-08 21:18 30.23918 53.08643 23484 ft 491 kts 30°
2026-05-08 21:18 30.26860 53.10678 23847 ft 494 kts 30°
2026-05-08 21:18 30.29817 53.12726 24125 ft 497 kts 30°
2026-05-08 21:18 30.32791 53.14786 24406 ft 500 kts 30°
2026-05-08 21:19 30.35793 53.16868 24656 ft 504 kts 30°
2026-05-08 21:19 30.38804 53.18957 24944 ft 507 kts 30°
2026-05-08 21:19 30.41824 53.21054 25196 ft 510 kts 30°
2026-05-08 21:19 30.44879 53.23176 25507 ft 512 kts 30°
2026-05-08 21:20 30.47942 53.25305 25780 ft 515 kts 30°
2026-05-08 21:20 30.51029 53.27453 26025 ft 520 kts 30°
2026-05-08 21:20 30.54128 53.29637 26290 ft 523 kts 30°
2026-05-08 21:20 30.57228 53.31859 26599 ft 525 kts 30°
2026-05-08 21:21 30.60336 53.34080 27009 ft 525 kts 30°
2026-05-08 21:21 30.63437 53.36296 27368 ft 526 kts 30°
2026-05-08 21:21 30.66557 53.38528 27723 ft 526 kts 30°
2026-05-08 21:21 30.69678 53.40762 28092 ft 527 kts 30°
2026-05-08 21:22 30.72799 53.42998 28520 ft 528 kts 30°
2026-05-08 21:22 30.75915 53.45231 28953 ft 528 kts 29°
2026-05-08 21:22 30.79046 53.47478 29302 ft 528 kts 30°
2026-05-08 21:22 30.82176 53.49725 29658 ft 529 kts 30°
2026-05-08 21:23 30.85300 53.51968 30039 ft 530 kts 30°
2026-05-08 21:23 30.88434 53.54222 30363 ft 530 kts 30°
2026-05-08 21:23 30.91576 53.56483 30648 ft 531 kts 29°
2026-05-08 21:23 30.94720 53.58755 30979 ft 531 kts 30°
2026-05-08 21:24 30.97818 53.60996 31285 ft 531 kts 30°
2026-05-08 21:24 31.01002 53.63300 31617 ft 532 kts 30°
2026-05-08 21:24 31.04098 53.65542 31954 ft 532 kts 30°
2026-05-08 21:24 31.07247 53.67825 32262 ft 533 kts 30°
2026-05-08 21:25 31.10436 53.70138 32564 ft 533 kts 29°
2026-05-08 21:25 31.13591 53.72429 32859 ft 534 kts 29°
2026-05-08 21:25 31.16701 53.74688 33176 ft 534 kts 29°
2026-05-08 21:25 31.19855 53.76982 33482 ft 534 kts 29°
2026-05-08 21:26 31.23013 53.79281 33782 ft 535 kts 29°
2026-05-08 21:26 31.26160 53.81573 34086 ft 535 kts 29°
2026-05-08 21:26 31.29320 53.83877 34347 ft 535 kts 29°
2026-05-08 21:26 31.32478 53.86180 34622 ft 535 kts 29°
2026-05-08 21:27 31.35641 53.88489 34873 ft 535 kts 29°
2026-05-08 21:27 31.38802 53.90799 35050 ft 537 kts 29°
2026-05-08 21:27 31.41969 53.93115 35065 ft 536 kts 29°
2026-05-08 21:28 31.48277 53.97732 35055 ft 534 kts 29°
2026-05-08 21:28 31.54572 54.02344 35054 ft 533 kts 29°
2026-05-08 21:29 31.60858 54.06958 35079 ft 533 kts 29°
2026-05-08 21:29 31.67139 54.11574 35053 ft 531 kts 28°
2026-05-08 21:30 31.73393 54.16180 35044 ft 531 kts 28°
2026-05-08 21:30 31.79672 54.20809 35067 ft 533 kts 28°
2026-05-08 21:31 31.85958 54.25452 35075 ft 534 kts 29°
2026-05-08 21:31 31.91607 54.31043 35098 ft 535 kts 51°
2026-05-08 21:32 31.96446 54.37793 34963 ft 540 kts 50°
2026-05-08 21:32 32.01247 54.44608 34970 ft 541 kts 51°
2026-05-08 21:33 32.06030 54.51434 34990 ft 541 kts 51°
2026-05-08 21:33 32.08420 54.54849 34889 ft 539 kts 50°
2026-05-08 21:33 32.10800 54.58255 35013 ft 539 kts 50°
2026-05-08 21:34 32.15581 54.65105 34956 ft 539 kts 51°
2026-05-08 21:34 32.20342 54.71938 34946 ft 538 kts 51°
2026-05-08 21:35 32.25083 54.78756 34959 ft 537 kts 51°
2026-05-08 21:35 32.29819 54.85582 34936 ft 537 kts 51°
2026-05-08 21:36 32.34561 54.92427 34930 ft 539 kts 51°
2026-05-08 21:36 32.39268 54.99236 34916 ft 539 kts 51°
2026-05-08 21:37 32.44010 55.06106 34910 ft 538 kts 50°
2026-05-08 21:37 32.48748 55.12981 34909 ft 538 kts 50°
2026-05-08 21:38 32.53476 55.19854 34959 ft 538 kts 51°
2026-05-08 21:38 32.58193 55.26721 34854 ft 536 kts 50°
2026-05-08 21:39 32.62141 55.32479 34925 ft 537 kts 50°
2026-05-08 21:39 32.66844 55.39349 34915 ft 536 kts 50°
2026-05-08 21:40 32.71546 55.46228 34925 ft 537 kts 50°
2026-05-08 21:40 32.76249 55.53121 34906 ft 538 kts 50°
2026-05-08 21:41 32.83296 55.63472 34873 ft 535 kts 50°
2026-05-08 21:41 32.87978 55.70366 34908 ft 537 kts 51°
2026-05-08 21:42 32.92630 55.77232 34899 ft 536 kts 51°
2026-05-08 21:42 32.97301 55.84143 34888 ft 535 kts 50°
2026-05-08 21:43 33.01991 55.91095 34882 ft 536 kts 50°
2026-05-08 21:43 33.06623 55.97975 34882 ft 536 kts 50°
2026-05-08 21:44 33.11284 56.04909 34889 ft 536 kts 50°
2026-05-08 21:44 33.15933 56.11839 34900 ft 536 kts 51°
2026-05-08 21:45 33.20599 56.18807 34895 ft 537 kts 51°
2026-05-08 21:45 33.25258 56.25780 34894 ft 537 kts 51°
2026-05-08 21:46 33.29920 56.32765 34897 ft 537 kts 51°
2026-05-08 21:46 33.34573 56.39747 34891 ft 537 kts 51°
2026-05-08 21:47 33.39218 56.46726 34892 ft 537 kts 51°
2026-05-08 21:47 33.43895 56.53775 34870 ft 544 kts 51°
2026-05-08 21:48 33.48593 56.60865 34869 ft 543 kts 51°
2026-05-08 21:48 33.53282 56.67962 34860 ft 543 kts 51°
2026-05-08 21:49 33.57969 56.75068 34863 ft 544 kts 51°
2026-05-08 21:49 33.62649 56.82179 34860 ft 544 kts 51°
2026-05-08 21:50 33.67389 56.89256 34859 ft 543 kts 43°
2026-05-08 21:50 33.72985 56.95270 34876 ft 542 kts 39°
2026-05-08 21:51 33.78613 57.01283 34899 ft 541 kts 38°
2026-05-08 21:51 33.84247 57.07298 34905 ft 541 kts 38°
2026-05-08 21:52 33.89872 57.13316 34908 ft 540 kts 38°
2026-05-08 21:52 33.95497 57.19343 34915 ft 541 kts 38°
2026-05-08 21:53 34.01117 57.25376 34921 ft 541 kts 38°
2026-05-08 21:53 34.06737 57.31419 34925 ft 542 kts 38°
2026-05-08 21:54 34.12360 57.37477 34925 ft 542 kts 38°
2026-05-08 21:54 34.18028 57.43417 34926 ft 541 kts 37°
2026-05-08 21:55 34.23720 57.49386 34928 ft 541 kts 37°
2026-05-08 21:56 34.32244 57.58350 34927 ft 542 kts 37°
2026-05-08 21:56 34.37876 57.64286 34936 ft 542 kts 37°
2026-05-08 21:57 34.43551 57.70268 34935 ft 539 kts 37°
2026-05-08 21:57 34.49206 57.76226 34942 ft 538 kts 37°
2026-05-08 21:58 34.54856 57.82190 34977 ft 539 kts 37°
2026-05-08 21:58 34.60501 57.88161 34945 ft 540 kts 37°
2026-05-08 21:59 34.66158 57.94156 34938 ft 540 kts 37°
2026-05-08 21:59 34.71813 58.00158 34949 ft 539 kts 37°
2026-05-08 22:00 34.77459 58.06163 34952 ft 539 kts 37°
2026-05-08 22:00 34.83106 58.12181 34953 ft 540 kts 37°
2026-05-08 22:01 34.88741 58.18197 34962 ft 539 kts 37°
2026-05-08 22:01 34.94360 58.24208 34944 ft 537 kts 37°
2026-05-08 22:02 34.99977 58.30229 34953 ft 537 kts 37°
2026-05-08 22:02 35.05551 58.36214 34960 ft 537 kts 37°
2026-05-08 22:03 35.11153 58.42241 34972 ft 537 kts 37°
2026-05-08 22:03 35.16750 58.48273 34975 ft 538 kts 37°
2026-05-08 22:04 35.22346 58.54316 35003 ft 537 kts 37°
2026-05-08 22:04 35.27941 58.60370 35020 ft 537 kts 37°
2026-05-08 22:05 35.33526 58.66424 35037 ft 537 kts 37°
2026-05-08 22:05 35.39111 58.72490 35028 ft 537 kts 37°
2026-05-08 22:05 35.41909 58.75531 34820 ft 537 kts 37°
2026-05-08 22:06 35.44611 58.78637 34516 ft 538 kts 46°
2026-05-08 22:06 35.46829 58.82388 34111 ft 540 kts 60°
2026-05-08 22:06 35.48340 58.86584 33559 ft 537 kts 76°
2026-05-08 22:06 35.48987 58.91041 32978 ft 529 kts 89°
2026-05-08 22:07 35.49277 58.95528 32462 ft 527 kts 89°
2026-05-08 22:07 35.49547 59.00008 31890 ft 524 kts 89°
2026-05-08 22:07 35.49800 59.04467 31361 ft 522 kts 89°
2026-05-08 22:07 35.50043 59.08882 30885 ft 518 kts 89°
2026-05-08 22:08 35.50284 59.13281 30432 ft 516 kts 89°
2026-05-08 22:08 35.50521 59.17667 29952 ft 514 kts 89°
2026-05-08 22:08 35.50757 59.22038 29413 ft 513 kts 89°
2026-05-08 22:08 35.50992 59.26410 28891 ft 514 kts 89°
2026-05-08 22:09 35.51224 59.30785 28376 ft 514 kts 89°
2026-05-08 22:09 35.51456 59.35171 27858 ft 515 kts 89°
2026-05-08 22:09 35.51686 59.39559 27349 ft 516 kts 89°
2026-05-08 22:09 35.51916 59.43959 26867 ft 517 kts 89°
2026-05-08 22:10 35.52143 59.48344 26386 ft 517 kts 89°
2026-05-08 22:10 35.52369 59.52756 25919 ft 518 kts 89°
2026-05-08 22:10 35.52594 59.57163 25459 ft 518 kts 89°
2026-05-08 22:10 35.52817 59.61563 25004 ft 515 kts 89°
2026-05-08 22:11 35.53036 59.65921 24565 ft 510 kts 89°
2026-05-08 22:11 35.53252 59.70245 24114 ft 505 kts 89°
2026-05-08 22:11 35.53466 59.74543 23712 ft 502 kts 89°
2026-05-08 22:11 35.53674 59.78783 23165 ft 499 kts 90°
2026-05-08 22:12 35.53881 59.83021 22660 ft 495 kts 90°
2026-05-08 22:12 35.54085 59.87225 22163 ft 491 kts 90°
2026-05-08 22:12 35.54286 59.91388 21670 ft 485 kts 90°
2026-05-08 22:12 35.54482 59.95492 21189 ft 478 kts 90°
2026-05-08 22:13 35.54672 59.99480 20725 ft 471 kts 90°
2026-05-08 22:13 35.54860 60.03470 20253 ft 465 kts 90°
2026-05-08 22:13 35.55045 60.07410 19797 ft 460 kts 90°
2026-05-08 22:13 35.55226 60.11298 19347 ft 454 kts 91°
2026-05-08 22:14 35.55403 60.15158 18902 ft 450 kts 91°
2026-05-08 22:14 35.55579 60.18971 18426 ft 446 kts 90°
2026-05-08 22:14 35.55752 60.22761 17883 ft 443 kts 90°
2026-05-08 22:14 35.55922 60.26526 17343 ft 439 kts 90°
2026-05-08 22:15 35.56091 60.30252 16805 ft 436 kts 90°
2026-05-08 22:15 35.56621 60.33919 16278 ft 439 kts 73°
2026-05-08 22:15 35.57996 60.37259 15735 ft 439 kts 55°
2026-05-08 22:15 35.60100 60.39935 15239 ft 437 kts 36°
2026-05-08 22:16 35.62784 60.41607 14728 ft 429 kts 15°
2026-05-08 22:16 35.65675 60.41918 14256 ft 409 kts 351°
2026-05-08 22:16 35.68296 60.40842 13760 ft 390 kts 326°
2026-05-08 22:16 35.70349 60.38805 13274 ft 373 kts 314°
2026-05-08 22:17 35.72158 60.36593 12774 ft 362 kts 311°
2026-05-08 22:17 35.73860 60.34367 12306 ft 351 kts 310°
2026-05-08 22:17 35.75465 60.32182 11967 ft 338 kts 309°
2026-05-08 22:17 35.76987 60.30057 11706 ft 323 kts 309°
2026-05-08 22:18 35.78434 60.28012 11468 ft 311 kts 309°
2026-05-08 22:18 35.79847 60.26024 11227 ft 307 kts 309°
2026-05-08 22:18 35.81248 60.24066 10980 ft 306 kts 310°
2026-05-08 22:18 35.82654 60.22105 10742 ft 304 kts 310°
2026-05-08 22:19 35.84056 60.20153 10505 ft 303 kts 310°
2026-05-08 22:19 35.85450 60.18214 10278 ft 300 kts 310°
2026-05-08 22:19 35.86806 60.16330 10048 ft 289 kts 310°
2026-05-08 22:19 35.88119 60.14502 9784 ft 279 kts 310°
2026-05-08 22:20 35.89384 60.12733 9518 ft 273 kts 310°
2026-05-08 22:20 35.90607 60.10949 9255 ft 271 kts 309°
2026-05-08 22:20 35.91801 60.09159 9021 ft 270 kts 309°
2026-05-08 22:20 35.92991 60.07377 8863 ft 269 kts 309°
2026-05-08 22:21 35.94178 60.05597 8710 ft 269 kts 309°
2026-05-08 22:21 35.95364 60.03820 8564 ft 268 kts 309°
2026-05-08 22:21 35.96545 60.02050 8411 ft 266 kts 309°
2026-05-08 22:21 35.97692 60.00329 8254 ft 259 kts 309°
2026-05-08 22:22 35.98827 59.98625 8106 ft 256 kts 310°
2026-05-08 22:22 35.99949 59.96941 7926 ft 248 kts 310°
2026-05-08 22:22 36.01018 59.95334 7741 ft 236 kts 310°
2026-05-08 22:22 36.01703 59.94305 7666 ft 223 kts 310°
2026-05-08 22:23 36.02955 59.92423 7391 ft 204 kts 310°
2026-05-08 22:23 36.03834 59.91099 7182 ft 196 kts 311°
2026-05-08 22:23 36.04691 59.89809 6968 ft 193 kts 311°
2026-05-08 22:23 36.05544 59.88526 6771 ft 193 kts 312°
2026-05-08 22:24 36.06337 59.87197 6573 ft 191 kts 309°
2026-05-08 22:24 36.07119 59.85903 6347 ft 185 kts 311°
2026-05-08 22:24 36.07926 59.84690 6121 ft 180 kts 313°
2026-05-08 22:24 36.08746 59.83533 5905 ft 178 kts 315°
2026-05-08 22:25 36.09575 59.82406 5688 ft 177 kts 315°
2026-05-08 22:25 36.10414 59.81290 5479 ft 177 kts 315°
2026-05-08 22:25 36.11254 59.80186 5283 ft 176 kts 315°
2026-05-08 22:25 36.11811 59.79458 5166 ft 175 kts 315°
2026-05-08 22:26 36.12631 59.78390 5002 ft 167 kts 315°
2026-05-08 22:26 36.13422 59.77363 4919 ft 164 kts 315°
2026-05-08 22:26 36.14206 59.76347 4980 ft 162 kts 315°
2026-05-08 22:26 36.14977 59.75347 5018 ft 158 kts 315°
2026-05-08 22:27 36.15733 59.74367 4955 ft 157 kts 315°
2026-05-08 22:27 36.16483 59.73395 4785 ft 155 kts 315°
2026-05-08 22:27 36.17219 59.72441 4604 ft 152 kts 315°
2026-05-08 22:27 36.17946 59.71502 4430 ft 150 kts 315°
2026-05-08 22:28 36.18657 59.70576 4232 ft 148 kts 314°
2026-05-08 22:28 36.19374 59.69650 4051 ft 149 kts 313°
2026-05-08 22:28 36.20094 59.68715 3855 ft 151 kts 312°
2026-05-08 22:28 36.20820 59.67772 3660 ft 152 kts 312°
2026-05-08 22:29 36.21549 59.66828 3452 ft 152 kts 312°
2026-05-08 22:29 36.22274 59.65879 3313 ft 152 kts 313°
2026-05-08 22:29 36.22958 59.64973 3259 ft 129 kts 314°
2026-05-08 22:29 36.23253 59.64558 3260 ft 17 kts 276°
2026-05-08 22:30 36.23237 59.64521 3260 ft 1 kts 193°
2026-05-08 22:30 36.23233 59.64521 3261 ft 0 kts 181°
2026-05-08 22:30 36.23231 59.64521 3261 ft 2 kts 181°
2026-05-08 22:31 36.23204 59.64528 3260 ft 6 kts 151°
2026-05-08 22:31 36.23139 59.64566 3261 ft 15 kts 164°
2026-05-08 22:31 36.23006 59.64569 3258 ft 24 kts 195°
2026-05-08 22:31 36.22874 59.64445 3257 ft 22 kts 234°
2026-05-08 22:32 36.22846 59.64334 3256 ft 10 kts 236°
2026-05-08 22:32 36.22820 59.64302 3256 ft 5 kts 223°
2026-05-08 22:32 36.22814 59.64295 3256 ft 0 kts 223°